Weather History for Decatur, AL

Change the Weather History Date:

Wednesday, April 23, 2014

  Actual Average Record
Temperature  
Mean Temperature 60 °F -  
Max Temperature 75 °F 73 °F 89 °F (1960)
Min Temperature 46 °F 50 °F 33 °F (1986)
Degree Days  
Heating Degree Days 4    
Growing Degree Days 10 (Base 50)    
Moisture  
Dew Point 41 °F    
Average Humidity 53    
Maximum Humidity 93    
Minimum Humidity 22    
Precipitation  
Precipitation 0.00 in - - ()
Sea Level Pressure  
Sea Level Pressure 29.98 in    
Wind  
Wind Speed 5 mph (NNE)    
Max Wind Speed 13 mph    
Max Gust Speed 17 mph    
Visibility 10 miles    
Events      
Averages and records for this station are not official NWS values.
T = Trace of Precipitation, MM = Missing Value Source: NWS Daily Summary

Daily Weather History Graph

Daily Weather History Graph

Search for Another Location

Airport:

Trip Planner

Search our weather history database for the weather conditions in past years. The results will help you decide how hot, cold, wet, or windy it might be!

Date:

Astronomy

Apr. 23, 2014 Rise Set
Actual Time 6:06 AM CDT 7:26 PM CDT
Civil Twilight 5:40 AM CDT 7:52 PM CDT
Nautical Twilight 5:08 AM CDT 8:24 PM CDT
Astronomical Twilight 4:35 AM CDT 8:57 PM CDT
Moon 2:22 AM CDT (4/23) 1:48 PM CDT (4/23)
Length of Visible Light 14h 12m
Length of Day
13h 19m
Waning Crescent, 34% of the Moon is Illuminated
Apr 23
Waning Crescent
Apr 29
New
May 6
First Quarter
May 14
Full
May 21
Last Quarter

Hourly Weather History & Observations

Time (CDT) Temp. Dew Point Humidity Pressure Visibility Wind Dir Wind Speed Gust Speed Precip Events Conditions
12:53 AM 59.0 °F 46.9 °F 64% 29.92 in 10.0 mi NE 3.5 mph - N/A   Clear
1:53 AM 59.0 °F 45.0 °F 60% 29.93 in 10.0 mi NNE 5.8 mph - N/A   Clear
2:53 AM 55.0 °F 45.0 °F 69% 29.93 in 10.0 mi Calm Calm - N/A   Clear
3:53 AM 50.0 °F 46.9 °F 89% 29.94 in 10.0 mi Calm Calm - N/A   Clear
4:53 AM 48.0 °F 45.0 °F 89% 29.96 in 10.0 mi Calm Calm - N/A   Clear
5:53 AM 46.0 °F 44.1 °F 93% 29.98 in 10.0 mi Calm Calm - N/A   Clear
6:53 AM 48.0 °F 44.1 °F 86% 30.00 in 10.0 mi NNE 4.6 mph - N/A   Clear
7:53 AM 55.9 °F 44.1 °F 64% 30.03 in 10.0 mi North 9.2 mph - N/A   Clear
8:53 AM 60.1 °F 42.1 °F 51% 30.04 in 10.0 mi NE 8.1 mph - N/A   Clear
9:53 AM 63.0 °F 39.0 °F 41% 30.05 in 10.0 mi ENE 9.2 mph - N/A   Clear
10:53 AM 66.9 °F 37.9 °F 34% 30.05 in 10.0 mi NE 12.7 mph 17.3 mph N/A   Clear
11:53 AM 68.0 °F 39.0 °F 35% 30.04 in 10.0 mi North 9.2 mph - N/A   Clear
12:53 PM 70.0 °F 37.0 °F 30% 30.01 in 10.0 mi NE 10.4 mph 17.3 mph N/A   Clear
1:53 PM 73.0 °F 37.9 °F 28% 29.98 in 10.0 mi NNW 6.9 mph - N/A   Clear
2:53 PM 73.0 °F 36.0 °F 26% 29.97 in 10.0 mi North 10.4 mph - N/A   Clear
3:53 PM 75.0 °F 34.0 °F 22% 29.96 in 10.0 mi NNE 8.1 mph 17.3 mph N/A   Clear
4:53 PM 73.9 °F 34.0 °F 23% 29.95 in 10.0 mi NE 6.9 mph - N/A   Clear
5:53 PM 73.9 °F 34.0 °F 23% 29.95 in 10.0 mi North 6.9 mph - N/A   Clear
6:53 PM 70.0 °F 37.0 °F 30% 29.95 in 10.0 mi NE 5.8 mph - N/A   Clear
7:53 PM 59.0 °F 43.0 °F 55% 29.96 in 10.0 mi North 3.5 mph - N/A   Clear
8:53 PM 55.0 °F 43.0 °F 64% 29.98 in 10.0 mi NNE 4.6 mph - N/A   Clear
9:53 PM 57.9 °F 39.0 °F 49% 29.98 in 10.0 mi NNE 5.8 mph - N/A   Clear
10:53 PM 51.1 °F 43.0 °F 74% 29.97 in 10.0 mi NNE 5.8 mph - N/A   Clear
11:53 PM 50.0 °F 42.1 °F 74% 29.97 in 10.0 mi NE 3.5 mph - N/A   Clear